TimeCDT,TemperatureF,Dew PointF,Humidity,Sea Level PressureIn,VisibilityMPH,Wind Direction,Wind SpeedMPH,Gust SpeedMPH,PrecipitationIn,Events,Conditions,WindDirDegrees,DateUTC
12:15 AM,73.8,72.5,96,30.24,10.0,East,4.6,-,N/A,,Clear,100,2013-07-15 05:15:00
12:35 AM,73.4,72.5,97,30.24,10.0,East,4.6,-,N/A,,Clear,100,2013-07-15 05:35:00
12:55 AM,73.4,72.0,95,30.24,10.0,East,3.5,-,N/A,,Clear,90,2013-07-15 05:55:00
1:15 AM,73.2,72.3,97,30.25,10.0,ESE,4.6,-,N/A,,Clear,110,2013-07-15 06:15:00
1:35 AM,73.4,71.6,94,30.24,10.0,ESE,5.8,-,N/A,,Clear,110,2013-07-15 06:35:00
1:55 AM,72.5,72.5,100,30.24,10.0,ESE,5.8,-,N/A,,Clear,120,2013-07-15 06:55:00
2:15 AM,72.5,72.5,100,30.25,10.0,ESE,3.5,-,N/A,,Clear,120,2013-07-15 07:15:00
2:35 AM,72.5,72.5,100,30.25,10.0,ESE,3.5,-,N/A,,Clear,110,2013-07-15 07:35:00
2:55 AM,72.0,72.0,100,30.26,10.0,East,4.6,-,N/A,,Clear,100,2013-07-15 07:55:00
3:15 AM,72.1,72.1,100,30.26,10.0,ESE,5.8,-,N/A,,Clear,120,2013-07-15 08:15:00
3:35 AM,71.8,71.8,100,30.26,10.0,East,4.6,-,N/A,,Clear,100,2013-07-15 08:35:00
3:55 AM,71.6,71.6,100,30.26,10.0,ESE,5.8,-,N/A,,Clear,110,2013-07-15 08:55:00
4:15 AM,71.2,71.2,100,30.26,10.0,ESE,6.9,-,N/A,,Clear,110,2013-07-15 09:15:00
4:35 AM,70.7,70.7,100,30.26,10.0,East,4.6,-,N/A,,Clear,90,2013-07-15 09:35:00
4:55 AM,70.3,70.3,100,30.26,10.0,East,5.8,-,N/A,,Clear,90,2013-07-15 09:55:00
5:15 AM,70.2,70.2,100,30.26,10.0,East,3.5,-,N/A,,Clear,80,2013-07-15 10:15:00
5:35 AM,70.0,70.0,100,30.26,10.0,East,4.6,-,N/A,,Clear,100,2013-07-15 10:35:00
5:55 AM,70.3,70.3,100,30.27,10.0,East,5.8,-,N/A,,Clear,100,2013-07-15 10:55:00
6:15 AM,70.9,70.9,100,30.27,10.0,East,4.6,-,N/A,,Clear,90,2013-07-15 11:15:00
6:35 AM,71.6,71.6,100,30.27,10.0,ENE,3.5,-,N/A,,Clear,60,2013-07-15 11:35:00
6:55 AM,71.6,71.6,100,30.27,10.0,ENE,3.5,-,N/A,,Clear,70,2013-07-15 11:55:00
7:15 AM,73.4,72.7,98,30.28,10.0,ENE,3.5,-,N/A,,Clear,60,2013-07-15 12:15:00
7:35 AM,74.5,72.9,95,30.28,7.0,East,4.6,-,N/A,,Clear,90,2013-07-15 12:35:00
7:55 AM,75.4,73.4,94,30.28,10.0,Calm,Calm,-,N/A,,Clear,0,2013-07-15 12:55:00
8:15 AM,77.2,70.7,80,30.28,10.0,East,3.5,-,N/A,,Clear,90,2013-07-15 13:15:00
8:35 AM,78.8,68.2,70,30.29,10.0,East,3.5,-,N/A,,Clear,100,2013-07-15 13:35:00
8:55 AM,80.1,68.9,69,30.29,10.0,ESE,3.5,-,N/A,,Clear,120,2013-07-15 13:55:00
9:15 AM,81.7,69.8,67,30.29,10.0,SSE,4.6,-,N/A,,Clear,150,2013-07-15 14:15:00
9:35 AM,82.4,70.0,66,30.29,10.0,SSE,6.9,-,N/A,,Clear,150,2013-07-15 14:35:00
9:55 AM,83.8,70.7,64,30.29,10.0,SE,5.8,-,N/A,,Clear,140,2013-07-15 14:55:00
10:15 AM,84.4,71.1,64,30.29,10.0,Calm,Calm,-,N/A,,Clear,0,2013-07-15 15:15:00
10:35 AM,85.1,70.9,62,30.29,10.0,SSE,4.6,-,N/A,,Scattered Clouds,150,2013-07-15 15:35:00
10:55 AM,86.2,70.0,58,30.29,10.0,ESE,4.6,-,N/A,,Scattered Clouds,120,2013-07-15 15:55:00
11:15 AM,87.4,70.3,57,30.29,10.0,ESE,5.8,-,N/A,,Scattered Clouds,110,2013-07-15 16:15:00
11:35 AM,86.5,69.1,56,30.29,10.0,South,4.6,-,N/A,,Scattered Clouds,190,2013-07-15 16:35:00
11:55 AM,88.0,69.6,54,30.28,10.0,SE,8.1,-,N/A,,Scattered Clouds,140,2013-07-15 16:55:00
12:15 PM,88.0,68.7,53,30.29,10.0,SE,6.9,-,N/A,,Clear,130,2013-07-15 17:15:00
12:35 PM,88.2,68.7,52,30.28,10.0,South,5.8,-,N/A,,Clear,190,2013-07-15 17:35:00
12:55 PM,88.3,68.0,51,30.28,10.0,South,6.9,-,N/A,,Mostly Cloudy,170,2013-07-15 17:55:00
1:15 PM,87.8,68.4,52,30.28,10.0,ESE,5.8,-,N/A,,Mostly Cloudy,110,2013-07-15 18:15:00
1:35 PM,89.8,68.5,49,30.27,10.0,SE,6.9,-,N/A,,Mostly Cloudy,140,2013-07-15 18:35:00
1:55 PM,90.0,67.6,48,30.27,10.0,South,3.5,-,N/A,,Scattered Clouds,170,2013-07-15 18:55:00
2:15 PM,90.5,67.8,47,30.27,10.0,South,6.9,-,N/A,,Scattered Clouds,170,2013-07-15 19:15:00
2:35 PM,89.1,68.9,51,30.26,10.0,SSE,9.2,-,N/A,,Scattered Clouds,150,2013-07-15 19:35:00
2:55 PM,90.3,68.4,48,30.26,10.0,SE,8.1,-,N/A,,Scattered Clouds,140,2013-07-15 19:55:00
3:15 PM,91.2,67.6,46,30.25,10.0,South,8.1,-,N/A,,Scattered Clouds,190,2013-07-15 20:15:00
3:35 PM,90.3,68.5,49,30.25,10.0,South,3.5,-,N/A,,Mostly Cloudy,180,2013-07-15 20:35:00
3:55 PM,91.2,68.7,47,30.25,10.0,SSE,8.1,-,N/A,,Scattered Clouds,160,2013-07-15 20:55:00
4:15 PM,90.9,67.3,46,30.24,10.0,SW,4.6,-,N/A,,Scattered Clouds,220,2013-07-15 21:15:00
4:35 PM,90.9,67.3,46,30.24,10.0,South,5.8,-,N/A,,Scattered Clouds,180,2013-07-15 21:35:00
4:55 PM,90.9,66.0,44,30.24,10.0,South,5.8,-,N/A,,Clear,180,2013-07-15 21:55:00
5:15 PM,90.7,66.7,45,30.23,10.0,SSE,3.5,-,N/A,,Clear,150,2013-07-15 22:15:00
5:35 PM,90.3,67.5,47,30.23,10.0,Calm,Calm,-,N/A,,Clear,0,2013-07-15 22:35:00
5:55 PM,90.0,67.8,48,30.23,10.0,ESE,3.5,-,N/A,,Scattered Clouds,120,2013-07-15 22:55:00
6:15 PM,90.0,67.3,47,30.22,10.0,South,5.8,-,N/A,,Clear,170,2013-07-15 23:15:00
6:35 PM,89.1,68.4,50,30.22,10.0,South,4.6,-,N/A,,Clear,170,2013-07-15 23:35:00
6:55 PM,88.7,68.9,52,30.22,10.0,SSE,6.9,-,N/A,,Mostly Cloudy,160,2013-07-15 23:55:00
7:15 PM,87.3,69.6,56,30.23,10.0,South,9.2,-,N/A,,Scattered Clouds,170,2013-07-16 00:15:00
7:35 PM,86.0,70.5,60,30.23,10.0,South,6.9,-,N/A,,Mostly Cloudy,170,2013-07-16 00:35:00
7:55 PM,85.3,71.6,63,30.23,10.0,South,5.8,-,N/A,,Overcast,170,2013-07-16 00:55:00
8:15 PM,84.6,72.7,67,30.23,10.0,South,5.8,-,N/A,,Overcast,170,2013-07-16 01:15:00
8:35 PM,83.5,72.7,70,30.24,10.0,South,5.8,-,N/A,,Overcast,170,2013-07-16 01:35:00
8:55 PM,82.6,73.0,73,30.24,10.0,South,5.8,-,N/A,,Scattered Clouds,170,2013-07-16 01:55:00
9:15 PM,81.9,77.7,87,30.25,10.0,South,4.6,-,N/A,,Clear,170,2013-07-16 02:15:00
9:35 PM,81.0,79.0,94,30.25,10.0,SSE,5.8,-,N/A,,Clear,150,2013-07-16 02:35:00
9:55 PM,80.2,79.2,96,30.26,10.0,SSE,6.9,-,N/A,,Clear,150,2013-07-16 02:55:00
10:15 PM,79.7,79.0,98,30.26,10.0,SSE,6.9,-,N/A,,Clear,150,2013-07-16 03:15:00
10:35 PM,79.3,79.3,100,30.26,10.0,SE,8.1,-,N/A,,Clear,140,2013-07-16 03:35:00
10:55 PM,79.0,79.0,100,30.27,10.0,SE,6.9,-,N/A,,Clear,140,2013-07-16 03:55:00
11:15 PM,78.6,78.6,100,30.27,10.0,SE,6.9,-,N/A,,Clear,140,2013-07-16 04:15:00
11:35 PM,78.8,78.8,100,30.27,10.0,SSE,8.1,-,N/A,,Clear,150,2013-07-16 04:35:00
11:55 PM,78.1,78.1,100,30.27,10.0,SSE,6.9,-,N/A,,Clear,160,2013-07-16 04:55:00